Vorticity
nan nan nan nan nan nan nan nan nan nan nan nan nan nan nan nan nan nan nan nan nan nan nan nan nan nan nan nan nan nan nan nan nan nan nan nan nan nan nan nan nan nan nan nan nan nan nan nan nan
nan 2 1 5 7 8 11 10 10 11 8 10 7 6 5 9 13 12 12 11 4 4 5 9 10 7 6 6 6 5 5 4 4 4 5 5 4 4 4 5 5 6 5 5 5 5 5 5 nan
nan -3 2 7 5 5 13 11 8 9 7 4 3 4 7 11 11 6 9 8 4 3 7 11 9 8 7 6 6 6 5 5 6 4 4 5 5 5 3 4 4 5 6 6 5 5 5 5 nan
nan 2 5 5 6 10 9 8 7 6 6 8 7 7 12 10 9 10 10 4 4 4 7 9 8 7 7 7 6 6 5 5 6 5 4 4 4 4 5 5 4 3 5 6 6 4 5 5 nan
nan 8 8 5 8 12 7 9 5 2 5 10 8 4 3 13 19 12 5 3 3 4 6 7 7 6 7 7 7 6 5 5 6 5 4 5 4 4 6 6 7 6 5 5 6 5 4 4 nan
nan 7 4 6 10 12 9 11 4 5 7 2 3 5 11 17 6 4 5 5 6 6 5 7 6 5 6 6 6 6 6 5 5 4 5 5 6 6 5 6 7 7 7 6 5 6 5 5 nan
nan 8 4 6 11 8 10 6 5 6 1 3 7 5 7 8 7 7 5 6 7 4 5 6 6 7 5 3 5 5 5 5 4 5 5 6 6 6 5 5 5 6 7 7 6 6 6 5 nan
nan 3 7 8 8 3 8 12 14 0 6 11 -0 3 10 11 7 4 7 7 6 5 5 5 5 5 5 9 8 4 4 4 5 5 5 5 6 5 5 5 5 5 5 6 7 7 6 6 nan
nan 6 5 5 10 10 9 3 4 17 12 3 10 11 14 11 4 5 3 4 5 6 6 6 6 6 5 7 8 9 6 5 5 6 5 4 5 7 7 6 6 6 6 6 6 7 8 6 nan
nan 7 10 4 5 10 4 4 8 8 5 12 17 11 10 7 2 4 3 4 5 6 6 6 6 6 6 6 7 7 6 7 8 8 7 7 7 7 8 10 11 9 7 7 6 8 10 7 nan
nan 5 9 9 9 6 1 5 7 6 9 12 8 4 2 3 5 5 7 7 6 4 5 7 6 7 6 5 6 7 8 7 8 8 7 7 8 8 8 9 11 12 8 7 8 7 7 10 nan
nan 5 2 15 8 2 5 7 9 7 11 11 8 7 4 5 6 4 7 5 8 8 6 5 8 7 5 6 8 7 7 7 8 10 8 8 7 8 9 10 8 7 8 8 8 7 6 6 nan
nan 3 6 16 11 1 3 4 6 12 19 8 7 5 3 6 6 7 8 9 8 6 7 7 5 6 8 6 7 8 7 8 8 9 8 7 7 8 8 8 7 8 8 6 5 5 5 4 nan
nan 8 11 18 17 7 2 2 4 13 15 8 5 4 6 6 5 5 8 12 10 6 7 7 6 7 7 6 6 7 8 9 9 8 7 7 7 8 8 7 7 7 7 6 6 6 7 7 nan
nan 12 24 16 2 4 3 3 14 15 10 8 4 4 5 5 7 6 9 9 10 9 7 6 6 8 8 8 7 7 9 12 11 9 9 8 8 9 7 7 8 7 7 6 6 10 8 7 nan
nan 15 13 5 8 4 2 7 9 12 10 9 10 8 6 9 6 6 9 8 8 10 9 7 9 9 7 8 8 7 10 11 10 9 9 8 8 8 7 7 7 8 7 7 7 7 8 7 nan
nan 6 1 14 9 8 4 6 12 10 4 8 7 15 15 7 6 9 9 9 10 8 7 8 8 8 6 7 7 7 9 9 8 9 9 5 7 7 7 6 7 8 7 6 7 8 8 10 nan
nan 6 7 4 8 15 6 6 11 10 8 9 4 4 8 11 9 7 7 8 9 9 8 7 8 7 6 5 6 6 7 9 9 7 8 9 10 8 6 6 7 6 7 8 9 8 6 8 nan
nan 5 6 12 9 4 3 12 14 11 6 4 9 5 3 7 10 9 8 7 7 8 9 7 6 5 4 6 6 7 8 7 7 10 10 8 9 8 6 6 8 8 9 9 7 7 8 9 nan
nan 5 6 7 7 4 12 16 17 16 5 4 6 5 8 8 11 7 7 9 8 7 5 5 6 6 5 8 10 9 9 9 9 9 8 9 9 7 7 7 8 7 11 13 11 7 8 10 nan
nan 5 8 -0 11 6 11 12 14 13 10 3 9 12 13 9 8 7 7 6 7 8 7 6 7 7 7 7 7 7 8 9 9 9 10 12 11 11 11 11 11 12 10 9 11 12 9 7 nan
nan 13 4 5 6 14 5 8 8 15 11 6 8 8 6 7 10 10 7 8 9 8 6 8 9 8 9 6 7 9 7 6 8 9 10 12 12 13 12 12 10 10 8 8 9 10 11 10 nan
nan 14 11 14 4 8 5 14 9 11 8 13 17 13 3 8 11 12 9 8 8 10 8 6 7 8 10 9 6 6 7 8 10 9 9 7 9 10 10 8 9 8 9 7 8 10 12 10 nan
nan 5 10 16 12 4 13 6 10 13 7 7 18 14 7 9 11 8 9 12 13 10 9 9 8 9 8 9 9 8 7 9 10 9 8 9 7 6 8 8 8 7 8 9 8 8 9 10 nan
nan 11 8 5 12 9 7 8 11 6 18 18 14 12 18 15 10 8 7 9 11 10 7 8 8 9 10 8 9 10 10 10 8 10 12 10 8 7 9 8 8 9 8 9 10 9 7 9 nan
nan 8 7 10 7 9 7 8 9 8 16 18 17 22 16 11 11 7 4 9 11 6 9 9 9 8 8 8 7 10 11 12 9 10 10 8 11 9 10 9 8 8 9 9 9 10 11 10 nan
nan 10 9 6 6 11 7 6 7 11 10 23 21 16 15 10 -1 0 4 11 11 7 8 9 8 8 8 10 8 7 9 9 10 10 9 9 8 11 10 10 10 7 7 9 11 10 9 10 nan
nan 3 7 10 14 6 10 12 7 4 7 11 10 8 -0 -4 9 15 14 10 8 11 7 9 10 9 10 8 8 10 8 4 8 9 11 11 8 9 9 9 8 8 9 9 10 9 9 9 nan
nan 6 12 15 8 10 9 6 11 10 9 4 5 4 -1 10 12 8 17 9 9 11 9 7 10 11 8 8 10 9 9 9 8 10 8 8 10 10 10 10 8 8 8 9 10 9 10 9 nan
nan nan nan nan nan nan nan nan nan nan nan nan nan nan nan nan nan nan nan nan nan nan nan nan nan nan nan nan nan nan nan nan nan nan nan nan nan nan nan nan nan nan nan nan nan nan nan nan nan
CAPE
1310 1115 693 534 516 513 0 129 184 326 242 52 93 226 179 172 283 12 538 1222 1679 2117 2442 2950 3363 3470 2998 2788 2583 2413 2298 2226 2207 2267 2132 1810 2261 1719 1887 2064 2052 2199 1876 1861 1768 1795 1771 1599 1144
1078 961 584 634 621 0 0 300 418 327 160 24 30 182 409 529 787 913 1146 1471 1786 2085 2235 2854 3500 3545 3415 3248 2942 2717 2342 2224 2296 2197 2265 1929 1906 1697 1304 1395 1758 1873 1901 1772 1770 1492 1554 1328 1155
976 666 964 936 754 0 16 368 492 590 572 588 640 635 632 615 864 828 1173 1488 1620 1878 2245 2554 3514 3540 3028 3184 3334 3026 2821 2341 2215 2047 2156 2180 2014 2033 2021 1086 1044 1366 1643 1738 1778 1404 1509 1025 1300
633 1486 1282 887 0 0 84 192 406 475 615 652 705 645 688 696 606 979 1310 1446 1535 1920 2190 3162 3238 2839 2947 3078 3156 2919 2646 2674 2499 2065 2057 1951 1868 1972 1903 1887 1577 1154 1084 1447 1693 1285 1020 953 1514
1 188 251 1 7 0 0 170 367 629 673 690 591 598 775 856 890 1038 1145 1572 1831 2197 2474 2737 3291 3287 3201 3147 3025 2983 2758 2477 2287 2141 2135 2117 1996 1971 1809 1923 1749 1895 1148 1255 1296 1762 1206 1336 1396
3 23 0 0 5 0 0 233 439 650 822 669 545 551 687 928 767 864 1432 1709 1920 2229 2410 2594 3113 3091 2827 2728 2697 2497 2327 2355 2394 2306 2183 2137 1969 2026 1814 1738 1834 1728 1845 1330 1272 1185 1633 1702 1490
0 2 80 79 0 6 6 317 498 778 808 737 650 597 657 1122 1119 1244 1393 1524 1742 2118 2123 2295 2364 2359 2595 2552 2488 2437 2312 2241 2275 2184 2199 2028 1964 1913 1909 1747 1694 1564 1597 1898 1187 1086 1346 1484 1657
16 0 20 2 3 5 29 18 447 693 734 842 759 707 696 930 1325 1129 1008 1370 1685 1831 2044 2062 1961 1924 2024 2117 2447 2410 2421 2403 2383 2387 2348 2283 2125 1980 1917 2294 2206 1435 1333 1321 1371 1279 1179 1234 1492
1 0 0 24 44 0 14 102 352 699 922 933 823 777 817 1462 1479 1269 1277 1284 1454 1655 1815 1809 1879 1747 1741 1921 2194 2881 2422 2294 2172 2147 2574 2234 1756 1652 1773 1992 1937 1539 1359 1202 1161 1326 1706 1342 1151
0 0 3 20 19 45 96 193 196 727 964 1092 1055 935 913 1212 1309 1458 1532 1494 1613 1559 1536 1650 1625 1560 1585 2189 2112 2212 1825 1799 1793 1782 1579 1717 1506 1298 1382 1635 1785 1819 1512 1411 1101 1249 1505 1599 746
0 0 0 13 41 66 44 13 155 221 894 995 1023 928 949 909 1264 1297 1610 1477 1506 1644 1782 1718 1594 1607 1615 1960 1786 1743 1657 1460 1431 1741 1481 1322 1268 931 1011 728 1394 1174 1520 858 1190 782 348 317 601
1 0 0 20 31 34 39 138 116 132 179 934 910 997 1003 964 1137 1034 1104 1376 1336 1694 1933 1856 1794 1781 1551 1436 1516 1350 1509 1255 1011 1270 1236 1010 629 401 518 568 399 616 298 94 0 0 0 0 0
2 0 20 49 42 33 92 106 190 439 338 882 958 1027 975 990 1005 928 875 965 1489 1657 1789 1931 1911 1765 1465 214 0 205 498 678 85 289 312 62 165 423 308 288 209 95 155 56 0 0 0 0 30
0 1 1 20 96 101 132 175 342 465 873 893 1120 1130 1076 1089 1074 933 1065 810 1712 1755 1834 1914 2071 1753 878 808 579 273 44 211 48 139 116 42 31 422 276 83 33 12 80 7 17 1 0 0 28
0 0 0 7 48 81 70 191 130 390 872 990 1199 1262 1220 1181 1211 1151 1099 1000 1430 1635 1923 1874 1806 1800 1170 888 695 436 364 313 172 107 9 0 164 373 225 204 97 1 0 0 0 0 0 0 7
0 0 0 0 27 51 0 5 0 61 474 757 1167 1274 1244 1285 1354 1197 1113 1151 1303 1554 1791 1671 2463 1875 1795 1555 1214 335 152 71 25 29 35 275 390 328 182 164 51 0 77 0 0 0 0 0 0
0 0 0 0 2 15 22 38 13 5 135 346 210 516 1151 1189 1232 1152 1397 1325 1518 1905 1985 2263 2404 1938 1755 1189 814 355 258 79 20 4 0 0 326 258 228 118 52 37 0 0 0 32 18 91 104
0 0 0 0 0 0 0 14 60 66 82 352 314 1053 1366 1268 1244 1253 1640 1756 1647 2418 2289 2339 2033 1690 1609 1302 777 256 21 124 62 31 12 0 0 246 178 117 81 72 0 0 0 0 41 67 7
0 0 0 0 0 0 0 0 0 31 44 404 684 944 681 771 1163 1522 1822 2007 2132 2778 2634 2317 1972 1794 1535 1504 1161 564 51 15 24 4 47 94 52 192 169 146 156 145 173 16 32 10 31 0 19
0 0 0 0 0 1 0 0 0 5 4 135 587 1132 319 144 1172 1580 1785 2258 2570 3061 2709 2457 2090 1863 1299 1637 1420 616 62 0 0 0 5 158 145 191 202 195 245 227 172 122 90 95 0 0 0
0 0 0 0 0 11 4 0 32 22 43 18 192 958 1030 1020 1343 1578 1842 2391 2983 3087 2936 2779 2363 1910 1705 1531 727 410 250 100 87 174 352 391 201 331 446 411 240 156 117 136 128 73 19 35 0
0 0 0 0 3 6 0 0 0 0 8 40 96 641 713 45 939 1518 1938 2521 2881 3182 3242 3070 2416 2076 1900 1104 828 424 167 208 310 521 564 790 713 540 340 251 137 92 60 78 60 61 0 0 0
0 0 0 0 0 0 0 0 0 0 0 0 175 302 428 66 905 1628 2105 2463 2959 3640 3534 3013 2161 2002 1985 1248 1009 471 204 222 670 830 892 514 405 361 235 150 55 27 11 10 22 36 18 0 24
0 0 0 0 0 0 0 0 0 0 0 0 281 473 502 356 1233 1896 2230 2510 3396 3904 3494 2603 2227 2266 1967 1150 1443 1119 711 976 934 677 568 454 363 294 212 86 16 0 0 29 0 19 63 17 6
0 0 0 0 0 0 0 0 1 0 0 0 1 135 81 713 2195 2646 2899 2783 3817 3705 3229 2427 2338 2153 1242 1039 1350 1094 1059 737 450 370 272 377 195 186 157 53 0 0 14 17 5 0 0 0 0
0 0 0 0 0 0 0 0 2 10 87 207 515 1309 1658 1496 1446 2212 2281 2780 3964 3678 2626 2464 2234 1799 1429 1443 1167 537 144 128 173 243 371 234 134 166 96 31 0 0 1 1 0 3 5 4 0
0 0 0 0 0 0 0 0 0 169 597 786 1141 1568 1082 587 463 545 19 2998 3773 3141 2055 2242 2135 1741 1548 1262 395 169 6 9 1 188 214 194 86 49 69 53 28 10 2 0 3 1 0 0 0
0 0 0 0 0 0 0 0 0 268 854 964 1051 1394 895 0 42 30 21 3053 3248 3071 2087 1828 1944 1647 1120 487 157 109 2 0 0 31 160 89 39 22 17 40 9 0 0 1 1 0 0 0 0
0 0 0 0 0 0 0 1 54 133 128 902 841 334 108 1 9 296 1940 3036 2612 2578 2363 2193 1571 1093 483 156 72 33 0 0 1 83 179 129 43 1 1 7 2 0 0 0 0 0 0 0 0
0 0 0 0 0 0 1 0 0 1 63 216 230 136 0 0 0 142 3235 2587 2871 2548 2374 1572 1034 564 133 0 2 13 12 140 197 156 76 14 11 5 1 0 0 0 0 0 0 0 0 0 0